Weather History for KSGJ - October, 2012

Change the Weather History Date:

Friday, October 19, 2012

  Actual Average (KJAX) Record (KJAX)
Temperature  
Mean Temperature 72 °F 70 °F  
Max Temperature 78 °F 80 °F 91 °F (1980)
Min Temperature 68 °F 59 °F 43 °F (2009)
Degree Days  
Heating Degree Days 0 1  
Month to date heating degree days 7  
Since 1 July heating degree days 7  
Cooling Degree Days 8 6  
Month to date cooling degree days 146  
Year to date cooling degree days 2532  
Growing Degree Days 22 (Base 50)    
Moisture  
Dew Point 67 °F    
Average Humidity 84    
Maximum Humidity 94    
Minimum Humidity 65    
Precipitation  
Precipitation 0.00 in 0.10 in 9.21 in (1944)
Month to date precipitation 2.97  
Year to date precipitation 46.52  
Snow  
Snow 0.00 in 0.00 in 0.00 in (2002)
Month to date snowfall 0.0  
Since 1 July snowfall 0.0  
Since 1 September snowfall 0.0  
Snow Depth -    
Sea Level Pressure  
Sea Level Pressure 29.86 in    
Wind  
Wind Speed 5 mph (WNW)    
Max Wind Speed 9 mph    
Max Gust Speed 24 mph    
Visibility 10 miles    
Events Rain    
T = Trace of Precipitation, MM = Missing Value Source: NWS Daily Summary

Daily Weather History Graph

Daily Weather History Graph

Search for Another Location

Airport or City:

Trip Planner

Search our weather history database for the weather conditions in past years. The results will help you decide how hot, cold, wet, or windy it might be!

Date:

Astronomy

Oct. 19, 2012 Rise Set
Actual Time 7:30 AM EDT 6:49 PM EDT
Civil Twilight 7:05 AM EDT 7:14 PM EDT
Nautical Twilight 6:38 AM EDT 7:41 PM EDT
Astronomical Twilight 6:10 AM EDT 8:09 PM EDT
Moon 11:57 AM EDT (10/19) 10:40 PM EDT (10/19)
Length of Visible Light 12h 08m
Length of Day
11h 19m
Waxing Crescent, 23% of the Moon is Illuminated
Oct 19
Waxing Crescent
Oct 21
First Quarter
Oct 29
Full
Nov 6
Last Quarter
Nov 13
New

Hourly Weather History & Observations

Time (EDT) Temp. Dew Point Humidity Pressure Visibility Wind Dir Wind Speed Gust Speed Precip Events Conditions
12:58 AM 72.0 °F 68.0 °F 87% 29.86 in 10.0 mi West 5.8 mph - N/A   Clear
1:58 AM 70.0 °F 66.9 °F 90% 29.86 in 10.0 mi Calm Calm - N/A   Clear
2:58 AM 69.1 °F 66.9 °F 93% 29.85 in 10.0 mi WSW 3.5 mph - N/A   Clear
3:58 AM 69.1 °F 66.0 °F 90% 29.82 in 10.0 mi SW 6.9 mph - N/A   Clear
4:58 AM 69.1 °F 66.9 °F 93% 29.82 in 10.0 mi WSW 5.8 mph - N/A   Clear
5:58 AM 69.1 °F 66.9 °F 93% 29.83 in 10.0 mi West 5.8 mph - N/A   Clear
6:58 AM 68.0 °F 66.0 °F 93% 29.84 in 10.0 mi West 4.6 mph - N/A   Clear
7:58 AM 69.1 °F 66.9 °F 93% 29.85 in 10.0 mi WSW 5.8 mph - N/A   Clear
8:58 AM 71.1 °F 68.0 °F 90% 29.88 in 10.0 mi West 5.8 mph - N/A   Scattered Clouds
9:18 AM 71.6 °F 69.8 °F 94% 29.88 in 10.0 mi WNW 4.6 mph - N/A   Mostly Cloudy
9:42 AM 71.6 °F 69.8 °F 94% 29.88 in 10.0 mi WNW 5.8 mph - N/A   Overcast
9:58 AM 73.0 °F 69.1 °F 87% 29.88 in 10.0 mi NW 6.9 mph - N/A   Overcast
10:21 AM 73.4 °F 69.8 °F 88% 29.88 in 10.0 mi NW 4.6 mph - N/A   Mostly Cloudy
10:58 AM 75.9 °F 69.1 °F 79% 29.89 in 10.0 mi NNW 8.1 mph - N/A   Mostly Cloudy
11:58 AM 75.9 °F 68.0 °F 76% 29.90 in 10.0 mi NW 4.6 mph - N/A   Overcast
12:58 PM 75.9 °F 66.9 °F 74% 29.88 in 10.0 mi NNE 5.8 mph - N/A   Overcast
1:58 PM 75.0 °F 68.0 °F 79% 29.86 in 10.0 mi Variable 5.8 mph 24.2 mph 0.00 in Rain Light Rain
3:58 PM 77.0 °F 64.9 °F 66% 29.84 in 10.0 mi NNE 8.1 mph - N/A   Mostly Cloudy
4:02 PM 77.0 °F 64.4 °F 65% 29.83 in 10.0 mi NNE 8.1 mph - N/A   Mostly Cloudy
4:58 PM 75.9 °F 64.0 °F 67% 29.83 in 10.0 mi NNE 9.2 mph - N/A   Partly Cloudy
5:58 PM 75.9 °F 64.0 °F 67% 29.83 in 10.0 mi NE 5.8 mph - N/A   Clear
6:58 PM 73.9 °F 64.9 °F 73% 29.83 in 10.0 mi SE 4.6 mph - N/A   Clear
7:58 PM 73.0 °F 64.9 °F 76% 29.84 in 10.0 mi Calm Calm - 0.00 in   Clear
8:58 PM 70.0 °F 66.0 °F 87% 29.86 in 10.0 mi Calm Calm - N/A   Partly Cloudy
9:58 PM 71.1 °F 66.9 °F 87% 29.86 in 10.0 mi South 4.6 mph - N/A   Clear
10:58 PM 71.1 °F 66.9 °F 87% 29.87 in 10.0 mi SSW 5.8 mph - N/A   Clear
11:58 PM 72.0 °F 69.1 °F 91% 29.87 in 10.0 mi SSW 6.9 mph - N/A   Clear